Probability
0 0 0 0 0 0 0 0 0 0 0 0 0 0 0 0 0 0 0 0 0 0 0 0 0 0 0 0 0 0 0 0 0 0 0 0 0 0 0 0 0 0 0
0 0 0 0 0 0 0 0 0 0 0 0 0 0 0 0 0 0 0 0 0 0 0 0 0 0 0 0 0 0 0 0 0 0 0 0 0 0 0 0 0 0 0
0 0 0 0 0 0 0 0 0 0 0 0 0 0 0 0 0 0 0 0 0 0 0 0 0 0 0 0 0 0 0 0 0 0 0 0 0 0 0 0 0 0 0
0 0 0 0 0 0 0 0 0 0 0 0 0 0 0 0 0 0 0 0 0 0 0 0 0 0 0 0 0 0 0 0 0 0 0 0 0 0 0 0 0 0 0
0 0 0 0 0 0 0 0 0 0 0 0 0 0 0 0 0 0 0 0 0 0 0 0 0 0 0 0 0 0 0 0 0 0 0 0 0 0 0 0 0 0 0
0 0 0 0 0 0 0 0 0 0 0 0 0 0 0 0 0 0 0 0 0 0 0 0 0 0 0 0 0 0 0 0 0 0 0 0 0 0 0 0 0 0 0
0 0 0 0 0 0 0 0 0 0 0 0 0 0 0 0 0 0 0 0 0 0 0 0 0 0 0 0 0 0 0 0 0 0 0 0 0 0 0 0 0 0 0
0 0 0 0 0 0 0 0 0 0 0 0 0 0 0 0 0 0 0 0 0 0 0 0 0 0 0 0 0 0 0 0 0 0 0 0 0 0 0 0 0 0 0
0 0 0 0 0 0 0 0 0 0 0 0 0 0 0 0 0 0 0 0 0 0 0 0 0 0 0 0 0 0 0 0 0 0 0 0 0 0 0 0 0 0 0
0 0 0 0 0 0 0 0 0 0 0 0 0 0 0 0 0 0 0 0 0 0 0 0 0 0 0 0 0 0 0 0 0 0 0 0 0 0 0 0 0 0 0
0 0 0 0 0 0 0 0 0 0 0 0 0 0 0 0 0 0 0 0 0 0 0 0 0 0 0 0 0 0 0 0 0 0 0 0 0 0 0 0 0 0 0
0 0 0 0 0 0 0 0 0 0 0 0 0 0 0 0 0 0 0 0 0 0 0 0 0 0 0 0 0 0 0 0 0 0 0 0 0 0 0 0 0 0 0
0 0 0 0 0 0 0 0 0 0 0 0 0 0 0 0 0 0 0 0 0 0 0 0 0 0 0 0 0 0 0 0 0 0 0 0 0 0 0 0 0 0 0
0 0 0 0 0 0 0 0 0 0 0 0 0 0 0 0 0 0 0 0 0 0 0 0 0 0 0 0 0 0 0 0 0 0 0 0 0 0 0 0 0 0 0
0 0 0 0 0 0 0 0 0 0 0 0 0 0 0 0 0 0 0 0 0 0 0 0 0 0 0 0 0 0 0 0 0 0 0 0 0 0 0 0 0 0 0
0 0 0 0 0 0 0 0 0 0 0 0 0 0 0 0 0 0 0 0 0 0 0 0 0 0 0 0 0 0 0 0 0 0 0 0 0 0 0 0 0 0 0
0 0 0 0 0 0 0 0 0 0 0 0 0 0 0 0 0 0 0 0 0 0 0 0 0 0 0 0 0 0 0 0 0 0 0 0 0 0 0 0 0 0 0
0 0 0 0 0 0 0 0 0 0 0 0 0 0 0 0 0 0 0 0 0 0 0 0 0 0 0 0 0 0 0 0 0 0 0 0 0 0 0 0 0 0 0
0 0 0 0 0 0 0 0 0 0 0 0 0 0 0 0 0 0 0 0 0 0 0 0 0 0 0 0 0 0 0 0 0 0 0 0 0 0 0 0 0 0 0
0 0 0 0 0 0 0 0 0 0 0 0 0 0 0 0 0 0 0 0 0 0 0 0 0 0 0 0 0 0 0 0 0 0 0 0 0 0 0 0 0 0 0
0 0 0 0 0 0 0 0 0 0 0 0 0 0 0 0 0 0 0 0 0 0 0 0 0 0 0 0 0 0 0 0 0 0 0 0 0 0 0 0 0 0 0
0 0 0 0 0 0 0 0 0 0 0 0 0 0 0 0 0 0 0 0 0 0 0 0 0 0 0 0 0 0 0 0 0 0 0 0 0 0 0 0 0 0 0
0 0 0 0 0 0 0 0 0 0 0 0 0 0 0 0 0 0 0 0 0 0 0 0 0 0 0 0 0 0 0 0 0 0 0 0 0 0 0 0 0 0 0
0 0 0 0 0 0 0 0 0 0 0 0 0 0 0 0 0 0 0 0 0 0 0 0 0 0 0 0 0 0 0 0 0 0 0 0 0 0 0 0 0 0 0
0 0 0 0 0 0 0 0 0 0 0 0 0 0 0 0 0 0 0 0 0 0 0 0 0 0 0 0 0 0 0 0 0 0 0 0 0 0 0 0 0 0 0
0 0 0 0 0 0 0 0 0 0 0 0 0 0 0 0 0 0 0 0 0 0 0 0 0 0 0 0 0 0 0 0 0 0 0 0 0 0 0 0 0 0 0
Wind_Speed
6 6 8 9 10 11 11 12 11 12 12 13 14 13 13 12 12 12 11 10 10 10 11 12 13 13 11 10 10 10 10 10 10 11 11 11 9 7 4 2 3 3 7
8 7 11 10 11 12 12 13 13 13 13 13 13 13 12 12 12 11 11 12 12 13 13 14 15 14 12 11 10 10 10 10 10 11 12 10 10 5 1 2 3 3 6
9 7 9 12 13 12 12 12 12 12 13 13 12 12 12 12 11 11 11 11 11 11 11 12 12 12 12 12 11 12 12 12 12 12 10 6 6 7 7 5 5 7 8
11 8 8 13 14 13 12 11 11 11 11 11 11 10 11 11 11 11 11 11 10 10 10 11 11 12 12 12 12 13 13 14 14 12 6 5 5 5 6 6 7 8 8
8 7 9 14 15 14 13 12 12 11 11 11 11 11 11 11 11 11 11 11 11 10 11 11 11 11 11 11 12 12 14 15 15 11 7 6 5 8 4 4 5 6 6
8 7 8 14 15 15 14 14 14 13 13 12 12 12 12 11 11 11 11 11 11 11 11 11 11 11 11 11 12 13 14 15 12 8 8 8 7 12 9 1 3 4 5
8 6 7 13 15 15 16 16 15 15 15 14 14 13 12 11 11 11 11 11 11 11 11 11 11 11 11 11 12 13 14 14 9 7 7 7 9 15 12 6 1 3 5
9 7 6 11 13 15 16 16 15 15 15 14 14 14 13 12 12 11 11 11 11 11 11 11 12 11 12 13 13 14 15 14 10 8 7 6 13 16 15 14 8 5 5
8 7 5 6 8 12 14 14 15 15 14 14 13 14 14 13 12 10 11 11 11 12 12 12 12 12 12 12 12 13 13 14 7 5 8 6 15 16 16 16 16 14 12
7 7 6 5 5 5 7 12 13 14 14 14 14 14 13 13 12 11 9 10 11 12 12 12 12 12 12 12 13 13 13 11 6 6 4 8 17 16 16 16 16 16 16
8 8 8 7 6 5 5 8 11 13 13 13 12 12 10 6 6 6 8 11 11 11 12 12 12 12 11 11 13 13 10 4 5 4 4 13 16 15 15 16 16 16 15
15 12 10 10 8 7 6 5 4 5 6 6 4 6 5 5 5 6 10 11 11 10 10 11 11 10 8 4 7 9 4 5 4 4 6 15 15 15 14 14 14 15 15
13 12 12 12 10 8 5 5 3 3 3 4 5 6 5 4 4 4 3 5 5 6 4 5 5 3 3 3 3 3 4 4 3 4 6 14 15 15 14 13 13 13 14
10 15 13 12 11 10 7 6 5 4 3 4 5 6 5 4 4 4 3 4 3 2 2 2 2 3 4 4 4 5 5 4 3 3 5 14 14 14 14 13 13 13 13
13 15 15 14 14 11 9 6 7 5 5 5 4 5 6 5 5 4 4 3 3 2 2 2 3 4 5 5 6 7 7 7 6 4 4 11 13 12 12 12 12 12 13
18 17 15 16 15 13 11 9 7 6 6 5 5 6 7 6 6 5 5 4 3 2 2 2 3 4 4 4 6 6 7 7 6 6 5 7 11 12 11 11 12 13 13
18 17 18 17 16 16 14 12 8 7 7 6 5 6 7 7 7 6 5 4 3 3 3 3 3 3 3 4 5 6 5 6 7 7 7 5 5 9 11 11 12 13 13
15 18 20 17 18 18 15 12 9 8 8 7 6 6 7 7 7 6 5 4 4 3 3 3 3 3 3 3 4 4 4 5 6 6 6 5 4 4 7 11 12 13 13
20 20 20 20 20 18 14 10 9 8 9 7 7 6 7 7 7 6 5 4 4 3 2 2 2 2 2 3 4 4 4 4 5 6 6 5 5 4 3 7 11 12 14
17 17 19 19 18 15 11 7 6 7 7 7 7 7 8 7 8 6 5 5 5 4 3 2 3 2 1 2 3 4 4 4 4 3 4 4 4 4 4 5 5 8 15
14 16 19 19 19 16 13 12 11 11 9 8 8 9 10 9 9 8 6 6 5 4 4 4 3 3 2 3 3 5 4 4 4 1 2 4 4 4 5 6 5 5 6
18 19 20 21 21 20 15 12 7 7 5 6 7 9 10 10 9 8 8 6 5 4 4 4 3 3 2 3 3 3 5 6 4 4 4 4 4 4 5 8 7 6 5
17 21 20 22 20 19 13 9 6 4 3 5 7 8 9 9 8 8 8 7 6 6 5 4 4 6 4 2 2 3 1 3 5 4 3 4 4 3 5 5 5 6 7
18 17 18 19 18 17 16 16 17 13 13 12 7 7 8 9 9 8 8 8 7 5 6 5 4 4 6 4 2 1 2 1 3 7 4 2 3 4 4 5 5 6 7
12 14 15 16 17 15 17 19 18 14 10 5 6 9 8 8 9 9 8 7 7 5 6 6 5 5 5 5 4 3 2 1 2 3 8 7 4 2 3 5 5 6 7
9 10 12 15 16 16 18 18 19 17 13 11 10 12 10 7 8 9 9 7 7 6 7 7 5 6 5 6 4 4 3 3 2 3 5 6 11 8 8 6 5 5 4
Wind_Direction
169 185 158 139 137 142 141 139 137 134 127 118 109 102 96 89 80 73 70 69 66 65 65 64 62 58 52 47 45 42 38 30 17 3 357 352 342 325 312 19 12 17 28
160 168 154 145 135 132 130 129 129 128 124 116 108 102 96 91 84 74 65 61 60 59 58 54 50 46 42 40 39 36 32 23 11 359 355 354 354 5 8 75 35 24 25
149 151 151 152 147 141 134 129 126 123 116 108 102 98 95 90 85 77 66 59 57 55 53 51 48 41 34 32 31 29 24 15 4 354 354 355 7 52 72 70 46 32 23
150 148 155 159 157 152 145 136 129 123 115 108 104 102 100 96 90 83 75 66 61 60 57 52 46 39 31 24 20 17 14 8 360 355 354 349 349 30 72 69 53 38 24
149 152 162 162 159 154 148 141 134 131 126 119 115 112 106 101 95 90 83 74 67 62 58 51 44 36 28 22 18 15 10 4 358 356 348 347 347 342 16 70 65 50 30
152 155 165 161 156 151 147 143 139 137 132 129 123 117 109 102 97 91 86 80 74 67 61 54 47 39 31 25 23 19 10 3 0 351 345 345 347 338 329 27 91 54 26
155 157 169 162 158 154 151 147 144 141 138 135 130 124 117 109 101 95 90 85 80 73 66 59 53 48 43 39 34 25 16 13 15 354 345 344 350 353 347 342 81 56 22
152 155 166 164 162 160 155 151 148 146 145 142 138 133 127 120 113 106 100 95 90 82 73 65 59 54 50 44 39 32 31 31 17 5 355 356 358 359 5 8 4 2 2
151 150 158 163 167 164 158 156 154 151 149 147 143 136 129 123 116 111 106 102 98 89 79 73 65 57 49 43 39 35 31 24 18 5 5 360 360 0 3 5 4 359 353
160 159 159 159 156 157 159 159 156 154 154 153 146 140 135 128 119 111 101 98 92 87 80 76 67 57 46 40 35 31 25 19 10 3 357 354 357 355 355 355 354 351 349
183 181 171 168 163 158 160 164 157 157 159 156 153 151 133 120 116 108 101 94 84 77 73 70 63 55 47 36 31 27 20 5 1 357 351 352 354 354 351 349 347 344 342
195 190 181 174 170 167 172 159 157 155 156 151 151 145 137 136 136 120 101 92 81 72 69 68 63 52 45 27 20 22 9 358 1 350 350 351 353 351 347 344 342 339 338
193 188 185 180 174 173 172 166 169 157 154 159 160 155 145 131 124 110 100 91 82 73 57 55 50 42 36 27 14 8 360 356 347 337 340 348 348 344 342 340 338 336 335
186 195 186 180 177 177 171 175 172 166 165 169 172 163 149 140 135 133 123 120 111 107 89 65 55 42 35 24 16 8 357 347 334 328 327 341 341 342 340 339 339 338 338
196 193 189 181 180 177 173 180 178 177 176 173 172 171 160 151 149 144 137 135 137 130 113 89 60 44 32 20 13 3 348 337 328 326 323 329 335 339 343 343 343 344 347
203 196 188 186 182 177 180 183 180 178 175 171 173 175 166 158 155 150 143 144 145 137 125 103 78 59 40 18 3 352 335 326 322 324 319 320 326 334 344 349 353 354 351
204 194 189 188 182 181 182 183 178 178 173 174 173 173 170 164 159 152 148 152 155 142 125 107 88 77 52 20 352 334 322 317 318 322 319 312 312 325 339 349 356 358 356
199 194 192 187 186 186 184 180 177 176 174 177 173 171 172 167 159 151 150 157 156 138 124 111 84 76 46 13 336 315 307 304 314 318 315 311 312 321 333 347 358 3 2
203 195 190 188 186 186 180 175 172 172 176 176 173 172 173 168 160 153 154 158 151 133 124 114 84 88 45 353 319 304 302 303 313 313 313 316 328 335 340 357 13 15 12
204 194 188 185 181 175 168 160 162 171 176 175 177 178 172 169 163 155 155 160 152 139 135 122 110 88 63 333 324 319 307 305 304 297 312 330 339 352 9 25 23 10 5
193 187 185 182 177 172 175 176 179 187 184 183 184 180 176 173 169 163 159 160 160 154 155 148 127 98 50 7 15 347 331 315 310 355 344 338 348 7 34 34 16 5 356
191 187 184 183 179 181 183 182 176 165 175 181 181 184 182 177 173 171 162 164 164 151 153 163 151 123 78 37 67 25 347 340 338 351 340 331 347 10 16 10 355 355 353
191 187 185 185 181 180 169 155 136 124 118 174 193 190 188 179 174 169 167 164 167 160 164 175 169 138 127 75 70 102 53 313 308 310 318 327 341 355 359 343 332 339 327
196 185 183 181 179 175 167 171 173 185 193 193 181 178 177 178 176 172 172 171 170 164 163 174 186 146 131 130 100 100 144 164 312 316 302 296 317 319 321 315 313 301 295
184 179 178 176 177 174 176 179 185 194 194 160 156 168 176 181 181 177 176 174 173 167 165 170 175 152 132 138 146 143 134 145 208 259 300 312 309 259 280 279 277 278 280
167 170 172 175 179 178 182 185 192 194 182 173 179 180 182 181 184 182 176 175 175 170 169 169 177 161 142 140 147 156 160 171 183 208 268 304 306 305 302 280 267 264 266